Flag for Niger Weather past 2 weeks in Niamey, Niger

Now
102 °F

Passing clouds.


Feels Like: 102 °F
Forecast: 84 / 100 °F
Wind: 8 mph from Southwest

Location: Niamey-Aero

Current Time: Jul 3, 2015 at 4:51:07 PM

Latest Report: Jul 3, 2015 at 4:00 PM


Visibility: N/A

Pressure: 29.83 "Hg

Humidity: 23%

Dew point: 57 °F

Location of NiameyLocation

Historic Weather in Niamey — Graph

°F

Niamey temperature yesterday

Maximum temperature yesterday: 99 °F (at 5:00 PM)
Minimum temperature yesterday: 86 °F (at 7:00 AM)
Average temperature yesterday: 92 °F

Past Weeks' High & Low Weather Summary

 TemperatureHumidityPressure
High108 °F (Jun 19, 5:00 PM)100% (Jun 24, 4:00 AM)30.07 "Hg (Jun 24, 4:00 AM)
Low70 °F (Jun 24, 4:00 AM)14% (Jun 21, 6:00 PM)29.74 "Hg (Jun 18, 4:00 PM)
Average92 °F43%29.89 "Hg
* Reported Jun 18 3:00 PM — Jul 3 3:00 PM, Niamey, Weather by CustomWeather, © 2015

Note: Actual official high and low records may vary slightly from our data, if they occured in-between our weather recording intervals... More about our weather records

Advertising

Niamey weather history for previous 24 hours

 ConditionsComfort  
Time TempWeatherWind HumidityBarometerVisibility
3:00 PM
Fri, Jul 3
100 °FPassing clouds.6 mph24%29.83 "HgN/A
2:00 PM99 °FPassing clouds.9 mph25%29.86 "HgN/A
1:00 PM97 °FPassing clouds.10 mph28%29.89 "HgN/A
12:00 PM95 °FPassing clouds.12 mph32%29.92 "HgN/A
11:00 AM91 °FPassing clouds.10 mph36%29.92 "HgN/A
10:00 AM88 °FSunny.13 mph46%29.92 "Hg10 mi
9:00 AM86 °FSunny.13 mph49%29.89 "Hg10 mi
8:00 AM82 °FSunny.14 mph58%29.89 "Hg10 mi
7:00 AM82 °FSunny.9 mph58%29.86 "Hg10 mi
6:00 AM82 °FClear.9 mph58%29.86 "Hg10 mi
5:00 AM84 °FClear.9 mph58%29.86 "Hg10 mi
4:00 AM86 °FClear.9 mph49%29.86 "Hg10 mi
3:00 AM88 °FClear.7 mph46%29.86 "Hg10 mi
2:00 AM88 °FClear.7 mph49%29.86 "Hg10 mi
1:00 AM88 °FClear.7 mph49%29.86 "Hg10 mi
12:00 AM90 °FPassing clouds.6 mph46%29.89 "HgN/A
11:00 PM
Thu, Jul 2
90 °FClear.7 mph46%29.86 "Hg10 mi
9:00 PM91 °FClear.8 mph44%29.83 "Hg5 mi
8:00 PM93 °FClear.12 mph41%29.83 "Hg5 mi
7:00 PM95 °FClear.10 mph36%29.80 "Hg5 mi
6:00 PM97 °FClear.13 mph32%29.80 "Hg5 mi
5:00 PM99 °FPassing clouds.14 mph31%29.80 "Hg5 mi
4:00 PM97 °FClear.12 mph32%29.83 "Hg5 mi
Weather by CustomWeather, © 2015

See weather overviewHow to use our weather pages